owner,sensor,date,latitude,longitude,vertical_datum,direction_of_sea_water_velocity,sea_water_speed,upward_sea_water_velocity,qcFlag 
TABS,ioos:station:wmo:42049:1,2007-06-01T21:30:00Z,28.3507,-96.0058,2.0,279.9394456,99.1886304,-99999.0,'11111222,11111222,99999999' 
TABS,ioos:station:wmo:42049:1,2007-06-01T22:00:00Z,28.3507,-96.0058,2.0,279.0871795,97.06817913,-99999.0,'11111222,11111222,99999999' 
TABS,ioos:station:wmo:42049:1,2007-06-01T22:30:00Z,28.3507,-96.0058,2.0,282.3406457,89.97890253,-99999.0,'11111222,11111222,99999999' 
TABS,ioos:station:wmo:42049:1,2007-06-01T23:00:00Z,28.3507,-96.0058,2.0,284.2141029,90.04663347,-99999.0,'11111222,11111222,99999999' 
TABS,ioos:station:wmo:42049:1,2007-06-01T23:30:00Z,28.3507,-96.0058,2.0,283.9589351,87.63790333,-99999.0,'11111222,11111222,99999999' 
TABS,ioos:station:wmo:42049:1,2007-06-02T00:00:00Z,28.3507,-96.0058,2.0,283.3020092,86.44922787,-99999.0,'11111222,11111222,99999999' 
TABS,ioos:station:wmo:42049:1,2007-06-02T00:30:00Z,28.3507,-96.0058,2.0,281.14154,87.87609914,-99999.0,'11111222,11111222,99999999' 
TABS,ioos:station:wmo:42049:1,2007-06-02T01:00:00Z,28.3507,-96.0058,2.0,281.1932442,85.41463868,-99999.0,'11111222,11111222,99999999' 
TABS,ioos:station:wmo:42049:1,2007-06-02T01:30:00Z,28.3507,-96.0058,2.0,278.9603442,89.24906498,-99999.0,'11111222,11111222,99999999' 
TABS,ioos:station:wmo:42049:1,2007-06-02T02:00:00Z,28.3507,-96.0058,2.0,278.2112189,89.34585889,-99999.0,'11111222,11111222,99999999' 
TABS,ioos:station:wmo:42049:1,2007-06-02T02:30:00Z,28.3507,-96.0058,2.0,275.6799376,89.93147447,-99999.0,'11111222,11111222,99999999' 
TABS,ioos:station:wmo:42049:1,2007-06-02T03:00:00Z,28.3507,-96.0058,2.0,272.5015038,88.45426219,-99999.0,'11111222,11111222,99999999' 
TABS,ioos:station:wmo:42049:1,2007-06-02T03:30:00Z,28.3507,-96.0058,2.0,270.9286808,87.65150312,-99999.0,'11111222,11111222,99999999' 
TABS,ioos:station:wmo:42049:1,2007-06-02T04:00:00Z,28.3507,-96.0058,2.0,267.9228501,87.47745595,-99999.0,'11111222,11111222,99999999' 
TABS,ioos:station:wmo:42049:1,2007-06-02T04:30:00Z,28.3507,-96.0058,2.0,264.3541368,87.52452285,-99999.0,'11111222,11111222,99999999' 
TABS,ioos:station:wmo:42049:1,2007-06-02T05:00:00Z,28.3507,-96.0058,2.0,260.3558938,84.64617475,-99999.0,'11111222,11111222,99999999' 
TABS,ioos:station:wmo:42049:1,2007-06-02T05:30:00Z,28.3507,-96.0058,2.0,255.0510121,85.90730819,-99999.0,'11111222,11111222,99999999' 
TABS,ioos:station:wmo:42049:1,2007-06-02T06:00:00Z,28.3507,-96.0058,2.0,248.7147159,83.63500762,-99999.0,'11111222,11111222,99999999' 
TABS,ioos:station:wmo:42049:1,2007-06-02T06:30:00Z,28.3507,-96.0058,2.0,244.7955359,81.90791476,-99999.0,'11111222,11111222,99999999' 
TABS,ioos:station:wmo:42049:1,2007-06-02T07:00:00Z,28.3507,-96.0058,2.0,239.3044506,78.30025415,-99999.0,'11111222,11111222,99999999' 
TABS,ioos:station:wmo:42049:1,2007-06-02T07:30:00Z,28.3507,-96.0058,2.0,234.448491,74.0416106,-99999.0,'11111222,11111222,99999999' 
TABS,ioos:station:wmo:42049:1,2007-06-02T08:00:00Z,28.3507,-96.0058,2.0,230.0678752,66.83541352,-99999.0,'11111222,11111222,99999999' 
TABS,ioos:station:wmo:42049:1,2007-06-02T08:30:00Z,28.3507,-96.0058,2.0,226.3769526,66.48724539,-99999.0,'11111222,11111222,99999999' 
TABS,ioos:station:wmo:42049:1,2007-06-02T09:00:00Z,28.3507,-96.0058,2.0,216.8045293,70.44004543,-99999.0,'11111222,11111222,99999999' 
TABS,ioos:station:wmo:42049:1,2007-06-02T09:30:00Z,28.3507,-96.0058,2.0,206.5508109,73.37880893,-99999.0,'11111222,11111222,99999999' 
TABS,ioos:station:wmo:42049:1,2007-06-02T10:00:00Z,28.3507,-96.0058,2.0,200.3722656,74.54271862,-99999.0,'11111222,11111222,99999999' 
TABS,ioos:station:wmo:42049:1,2007-06-02T10:30:00Z,28.3507,-96.0058,2.0,204.453064,75.85421874,-99999.0,'11111222,11111222,99999999' 
TABS,ioos:station:wmo:42049:1,2007-06-02T11:00:00Z,28.3507,-96.0058,2.0,202.8171989,78.9589311,-99999.0,'11111222,11111222,99999999' 
TABS,ioos:station:wmo:42049:1,2007-06-02T11:30:00Z,28.3507,-96.0058,2.0,199.4578766,84.29446482,-99999.0,'11111222,11111222,99999999' 
TABS,ioos:station:wmo:42049:1,2007-06-02T12:00:00Z,28.3507,-96.0058,2.0,196.3927745,92.83384943,-99999.0,'11111222,11111222,99999999' 
TABS,ioos:station:wmo:42049:1,2007-06-02T12:30:00Z,28.3507,-96.0058,2.0,197.9805966,90.5736391,-99999.0,'11111222,11111222,99999999' 
TABS,ioos:station:wmo:42049:1,2007-06-02T13:00:00Z,28.3507,-96.0058,2.0,199.3112344,100.8758128,-99999.0,'11111222,11111222,99999999' 
TABS,ioos:station:wmo:42049:1,2007-06-02T13:30:00Z,28.3507,-96.0058,2.0,198.5481755,91.00736728,-99999.0,'11111222,11111222,99999999' 
TABS,ioos:station:wmo:42049:1,2007-06-02T14:00:00Z,28.3507,-96.0058,2.0,194.509038,95.47497735,-99999.0,'11111222,11111222,99999999' 
TABS,ioos:station:wmo:42049:1,2007-06-02T14:30:00Z,28.3507,-96.0058,2.0,193.8651551,102.4863093,-99999.0,'11111222,11111222,99999999' 
TABS,ioos:station:wmo:42049:1,2007-06-02T15:00:00Z,28.3507,-96.0058,2.0,199.4207625,105.2909782,-99999.0,'11111222,11111222,99999999' 
TABS,ioos:station:wmo:42049:1,2007-06-02T15:30:00Z,28.3507,-96.0058,2.0,207.6606437,116.4488866,-99999.0,'11111222,11111222,99999999' 
TABS,ioos:station:wmo:42049:1,2007-06-02T16:00:00Z,28.3507,-96.0058,2.0,205.7786283,118.9700151,-99999.0,'11111222,11111222,99999999' 
TABS,ioos:station:wmo:42049:1,2007-06-02T16:30:00Z,28.3507,-96.0058,2.0,203.269782,116.8667553,-99999.0,'11111222,11111222,99999999' 
TABS,ioos:station:wmo:42049:1,2007-06-02T17:00:00Z,28.3507,-96.0058,2.0,204.0494759,116.6786399,-99999.0,'11111222,11111222,99999999' 
TABS,ioos:station:wmo:42049:1,2007-06-02T17:30:00Z,28.3507,-96.0058,2.0,202.9456857,111.3725729,-99999.0,'11111222,11111222,99999999' 
TABS,ioos:station:wmo:42049:1,2007-06-02T18:00:00Z,28.3507,-96.0058,2.0,203.4817169,101.9423092,-99999.0,'11111222,11111222,99999999' 
TABS,ioos:station:wmo:42049:1,2007-06-02T18:30:00Z,28.3507,-96.0058,2.0,201.2720001,106.3671119,-99999.0,'11111222,11111222,99999999' 
TABS,ioos:station:wmo:42049:1,2007-06-02T19:00:00Z,28.3507,-96.0058,2.0,202.0305129,104.3709011,-99999.0,'11111222,11111222,99999999' 
TABS,ioos:station:wmo:42049:1,2007-06-02T19:30:00Z,28.3507,-96.0058,2.0,200.4890805,106.5613551,-99999.0,'11111222,11111222,99999999' 
TABS,ioos:station:wmo:42049:1,2007-06-02T20:00:00Z,28.3507,-96.0058,2.0,199.4342818,109.8489445,-99999.0,'11111222,11111222,99999999' 
TABS,ioos:station:wmo:42049:1,2007-06-02T20:30:00Z,28.3507,-96.0058,2.0,195.7899385,105.4699488,-99999.0,'11111222,11111222,99999999' 
TABS,ioos:station:wmo:42049:1,2007-06-02T21:00:00Z,28.3507,-96.0058,2.0,192.3358057,103.4894299,-99999.0,'11111222,11111222,99999999' 
TABS,ioos:station:wmo:42049:1,2007-06-02T21:30:00Z,28.3507,-96.0058,2.0,193.4706818,96.11427053,-99999.0,'11111222,11111222,99999999' 
TABS,ioos:station:wmo:42049:1,2007-06-02T22:00:00Z,28.3507,-96.0058,2.0,201.3163003,86.68011652,-99999.0,'11111222,11111222,99999999' 
TABS,ioos:station:wmo:42049:1,2007-06-02T22:30:00Z,28.3507,-96.0058,2.0,212.2443502,75.64634823,-99999.0,'11111222,11111222,99999999' 
TABS,ioos:station:wmo:42049:1,2007-06-02T23:00:00Z,28.3507,-96.0058,2.0,218.6979804,67.44833949,-99999.0,'11111222,11111222,99999999' 
TABS,ioos:station:wmo:42049:1,2007-06-02T23:30:00Z,28.3507,-96.0058,2.0,222.3022375,60.0999584,-99999.0,'11111222,11111222,99999999' 
TABS,ioos:station:wmo:42049:1,2007-06-03T00:00:00Z,28.3507,-96.0058,2.0,236.5100483,49.1495117,-99999.0,'11111222,11111222,99999999' 
TABS,ioos:station:wmo:42049:1,2007-06-03T00:30:00Z,28.3507,-96.0058,2.0,246.4767116,43.14535896,-99999.0,'11111222,11111222,99999999' 
TABS,ioos:station:wmo:42049:1,2007-06-03T01:00:00Z,28.3507,-96.0058,2.0,253.3320925,41.52464931,-99999.0,'11111222,11111222,99999999' 
TABS,ioos:station:wmo:42049:1,2007-06-03T01:30:00Z,28.3507,-96.0058,2.0,257.9932606,34.85241168,-99999.0,'11111222,11111222,99999999' 
TABS,ioos:station:wmo:42049:1,2007-06-03T02:00:00Z,28.3507,-96.0058,2.0,264.2377433,33.36858553,-99999.0,'11111222,11111222,99999999' 
TABS,ioos:station:wmo:42049:1,2007-06-03T02:30:00Z,28.3507,-96.0058,2.0,276.6605749,33.02285421,-99999.0,'11111222,11111222,99999999' 
TABS,ioos:station:wmo:42049:1,2007-06-03T03:00:00Z,28.3507,-96.0058,2.0,287.4677363,28.65115879,-99999.0,'11111222,11111222,99999999' 
TABS,ioos:station:wmo:42049:1,2007-06-03T03:30:00Z,28.3507,-96.0058,2.0,294.6441636,26.81211107,-99999.0,'11111222,11111222,99999999' 
TABS,ioos:station:wmo:42049:1,2007-06-03T04:00:00Z,28.3507,-96.0058,2.0,299.8721983,22.94896294,-99999.0,'11111222,11111222,99999999' 
TABS,ioos:station:wmo:42049:1,2007-06-03T04:30:00Z,28.3507,-96.0058,2.0,302.2648639,20.62458969,-99999.0,'11111222,11111222,99999999' 
TABS,ioos:station:wmo:42049:1,2007-06-03T05:00:00Z,28.3507,-96.0058,2.0,302.5817119,18.34737038,-99999.0,'11111222,11111222,99999999' 
TABS,ioos:station:wmo:42049:1,2007-06-03T05:30:00Z,28.3507,-96.0058,2.0,289.2593418,20.0098001,-99999.0,'11111222,11111222,99999999' 
TABS,ioos:station:wmo:42049:1,2007-06-03T06:00:00Z,28.3507,-96.0058,2.0,300.5111361,16.05276923,-99999.0,'11111222,11111222,99999999' 
TABS,ioos:station:wmo:42049:1,2007-06-03T06:30:00Z,28.3507,-96.0058,2.0,313.0052673,16.65538952,-99999.0,'11111222,11111222,99999999' 
TABS,ioos:station:wmo:42049:1,2007-06-03T07:00:00Z,28.3507,-96.0058,2.0,332.1962853,18.20137632,-99999.0,'11111222,11111222,99999999' 
TABS,ioos:station:wmo:42049:1,2007-06-03T07:30:00Z,28.3507,-96.0058,2.0,336.8663315,16.28988643,-99999.0,'11111222,11111222,99999999' 
TABS,ioos:station:wmo:42049:1,2007-06-03T08:00:00Z,28.3507,-96.0058,2.0,334.6101891,16.13885993,-99999.0,'11111222,11111222,99999999' 
TABS,ioos:station:wmo:42049:1,2007-06-03T08:30:00Z,28.3507,-96.0058,2.0,337.8984386,15.22908402,-99999.0,'11111222,11111222,99999999' 
TABS,ioos:station:wmo:42049:1,2007-06-03T09:00:00Z,28.3507,-96.0058,2.0,330.3271977,12.86737347,-99999.0,'11111222,11111222,99999999' 
TABS,ioos:station:wmo:42049:1,2007-06-03T09:30:00Z,28.3507,-96.0058,2.0,334.5036943,8.154121657,-99999.0,'11133222,11111222,99999999' 
TABS,ioos:station:wmo:42049:1,2007-06-03T10:00:00Z,28.3507,-96.0058,2.0,4.638376293,5.688629009,-99999.0,'11133222,11111222,99999999' 
TABS,ioos:station:wmo:42049:1,2007-06-03T10:30:00Z,28.3507,-96.0058,2.0,33.23184382,1.040096149,-99999.0,'11133222,11111222,99999999' 
TABS,ioos:station:wmo:42049:1,2007-06-03T11:00:00Z,28.3507,-96.0058,2.0,161.8471261,7.061451692,-99999.0,'11133222,11111222,99999999' 
TABS,ioos:station:wmo:42049:1,2007-06-03T11:30:00Z,28.3507,-96.0058,2.0,178.4270383,13.84521578,-99999.0,'11111222,11111222,99999999' 
TABS,ioos:station:wmo:42049:1,2007-06-03T12:00:00Z,28.3507,-96.0058,2.0,187.9913664,17.55044159,-99999.0,'11111222,11111222,99999999' 
TABS,ioos:station:wmo:42049:1,2007-06-03T12:30:00Z,28.3507,-96.0058,2.0,204.8831558,14.78230361,-99999.0,'11111222,11111222,99999999' 
TABS,ioos:station:wmo:42049:1,2007-06-03T13:00:00Z,28.3507,-96.0058,2.0,209.4069098,17.04638965,-99999.0,'11111222,11111222,99999999' 
TABS,ioos:station:wmo:42049:1,2007-06-03T13:30:00Z,28.3507,-96.0058,2.0,219.8733339,22.63309524,-99999.0,'11111222,11111222,99999999' 
TABS,ioos:station:wmo:42049:1,2007-06-03T14:00:00Z,28.3507,-96.0058,2.0,206.9819999,22.72352525,-99999.0,'11111222,11111222,99999999' 
TABS,ioos:station:wmo:42049:1,2007-06-03T14:30:00Z,28.3507,-96.0058,2.0,217.5165807,29.0478519,-99999.0,'11111222,11111222,99999999' 
TABS,ioos:station:wmo:42049:1,2007-06-03T15:00:00Z,28.3507,-96.0058,2.0,212.8217289,26.17930671,-99999.0,'11111222,11111222,99999999' 
TABS,ioos:station:wmo:42049:1,2007-06-03T15:30:00Z,28.3507,-96.0058,2.0,224.9732198,30.61772689,-99999.0,'11111222,11111222,99999999' 
TABS,ioos:station:wmo:42049:1,2007-06-03T16:00:00Z,28.3507,-96.0058,2.0,223.342595,34.9669115,-99999.0,'11111222,11111222,99999999' 
TABS,ioos:station:wmo:42049:1,2007-06-03T16:30:00Z,28.3507,-96.0058,2.0,229.115186,43.4506168,-99999.0,'11111222,11111222,99999999' 
TABS,ioos:station:wmo:42049:1,2007-06-03T17:00:00Z,28.3507,-96.0058,2.0,234.2253089,43.61997364,-99999.0,'11111222,11111222,99999999' 
TABS,ioos:station:wmo:42049:1,2007-06-03T17:30:00Z,28.3507,-96.0058,2.0,234.5816626,43.96611536,-99999.0,'11111222,11111222,99999999' 
TABS,ioos:station:wmo:42049:1,2007-06-03T18:00:00Z,28.3507,-96.0058,2.0,236.7687551,40.83833983,-99999.0,'11111222,11111222,99999999' 
TABS,ioos:station:wmo:42049:1,2007-06-03T18:30:00Z,28.3507,-96.0058,2.0,238.4023503,40.4812858,-99999.0,'11111222,11111222,99999999' 
TABS,ioos:station:wmo:42049:1,2007-06-03T19:00:00Z,28.3507,-96.0058,2.0,238.6423575,36.45459916,-99999.0,'11111222,11111222,99999999' 
TABS,ioos:station:wmo:42049:1,2007-06-03T19:30:00Z,28.3507,-96.0058,2.0,236.283338,36.31899916,-99999.0,'11111222,11111222,99999999' 
TABS,ioos:station:wmo:42049:1,2007-06-03T20:00:00Z,28.3507,-96.0058,2.0,240.0597252,39.3514879,-99999.0,'11111222,11111222,99999999' 
TABS,ioos:station:wmo:42049:1,2007-06-03T20:30:00Z,28.3507,-96.0058,2.0,239.6177207,36.47962993,-99999.0,'11111222,11111222,99999999' 
TABS,ioos:station:wmo:42049:1,2007-06-03T21:00:00Z,28.3507,-96.0058,2.0,237.4652535,37.54142512,-99999.0,'11111222,11111222,99999999' 
TABS,ioos:station:wmo:42049:1,2007-06-03T21:30:00Z,28.3507,-96.0058,2.0,242.6812651,32.3139753,-99999.0,'11111222,11111222,99999999' 
TABS,ioos:station:wmo:42049:1,2007-06-03T22:00:00Z,28.3507,-96.0058,2.0,246.0222509,27.33921177,-99999.0,'11111222,11111222,99999999' 
TABS,ioos:station:wmo:42049:1,2007-06-03T22:30:00Z,28.3507,-96.0058,2.0,241.3383964,29.71039212,-99999.0,'11111222,11111222,99999999' 
TABS,ioos:station:wmo:42049:1,2007-06-03T23:00:00Z,28.3507,-96.0058,2.0,244.9697842,26.70823843,-99999.0,'11111222,11111222,99999999' 
TABS,ioos:station:wmo:42049:1,2007-06-03T23:30:00Z,28.3507,-96.0058,2.0,263.6180335,18.35372442,-99999.0,'11111222,11111222,99999999' 
TABS,ioos:station:wmo:42049:1,2007-06-04T00:00:00Z,28.3507,-96.0058,2.0,264.9254282,11.64563867,-99999.0,'11111222,11111222,99999999' 
TABS,ioos:station:wmo:42049:1,2007-06-04T00:30:00Z,28.3507,-96.0058,2.0,257.7529518,13.43575082,-99999.0,'11111222,11111222,99999999' 
TABS,ioos:station:wmo:42049:1,2007-06-04T01:00:00Z,28.3507,-96.0058,2.0,264.4379104,14.54848789,-99999.0,'11111222,11111222,99999999' 
TABS,ioos:station:wmo:42049:1,2007-06-04T01:30:00Z,28.3507,-96.0058,2.0,260.5839747,14.12023371,-99999.0,'11111222,11111222,99999999' 
TABS,ioos:station:wmo:42049:1,2007-06-04T02:00:00Z,28.3507,-96.0058,2.0,258.9768402,10.5649089,-99999.0,'11111222,11111222,99999999' 
TABS,ioos:station:wmo:42049:1,2007-06-04T02:30:00Z,28.3507,-96.0058,2.0,270.1934973,11.8700674,-99999.0,'11111222,11111222,99999999' 
TABS,ioos:station:wmo:42049:1,2007-06-04T03:00:00Z,28.3507,-96.0058,2.0,273.3332549,11.00861935,-99999.0,'11111222,11111222,99999999' 
TABS,ioos:station:wmo:42049:1,2007-06-04T03:30:00Z,28.3507,-96.0058,2.0,319.2311901,8.14685829,-99999.0,'11133222,11111222,99999999' 
TABS,ioos:station:wmo:42049:1,2007-06-04T04:00:00Z,28.3507,-96.0058,2.0,21.44974894,10.28214472,-99999.0,'11111222,11111222,99999999' 
TABS,ioos:station:wmo:42049:1,2007-06-04T04:30:00Z,28.3507,-96.0058,2.0,42.7801365,19.7147914,-99999.0,'11111222,11111222,99999999' 
TABS,ioos:station:wmo:42049:1,2007-06-04T05:00:00Z,28.3507,-96.0058,2.0,54.80472756,27.23963289,-99999.0,'11111222,11111222,99999999' 
TABS,ioos:station:wmo:42049:1,2007-06-04T05:30:00Z,28.3507,-96.0058,2.0,64.99634552,36.76566333,-99999.0,'11111222,11111222,99999999' 
TABS,ioos:station:wmo:42049:1,2007-06-04T06:00:00Z,28.3507,-96.0058,2.0,78.3427492,39.79073385,-99999.0,'11111222,11111222,99999999' 
TABS,ioos:station:wmo:42049:1,2007-06-04T06:30:00Z,28.3507,-96.0058,2.0,99.91769552,29.78510534,-99999.0,'11111222,11111222,99999999' 
TABS,ioos:station:wmo:42049:1,2007-06-04T07:00:00Z,28.3507,-96.0058,2.0,104.8205762,33.30811313,-99999.0,'11111222,11111222,99999999' 
TABS,ioos:station:wmo:42049:1,2007-06-04T07:30:00Z,28.3507,-96.0058,2.0,119.3225824,40.90032396,-99999.0,'11111222,11111222,99999999' 
TABS,ioos:station:wmo:42049:1,2007-06-04T08:00:00Z,28.3507,-96.0058,2.0,130.4242148,45.64780937,-99999.0,'11111222,11111222,99999999' 
TABS,ioos:station:wmo:42049:1,2007-06-04T08:30:00Z,28.3507,-96.0058,2.0,141.2569654,50.6050373,-99999.0,'11111222,11111222,99999999' 
TABS,ioos:station:wmo:42049:1,2007-06-04T09:00:00Z,28.3507,-96.0058,2.0,151.3386069,49.5173202,-99999.0,'11111222,11111222,99999999' 
TABS,ioos:station:wmo:42049:1,2007-06-04T09:30:00Z,28.3507,-96.0058,2.0,156.8698215,54.85986693,-99999.0,'11111222,11111222,99999999' 
TABS,ioos:station:wmo:42049:1,2007-06-04T10:00:00Z,28.3507,-96.0058,2.0,163.4135353,55.87490492,-99999.0,'11111222,11111222,99999999' 
TABS,ioos:station:wmo:42049:1,2007-06-04T10:30:00Z,28.3507,-96.0058,2.0,165.3069396,51.21476057,-99999.0,'11111222,11111222,99999999' 
TABS,ioos:station:wmo:42049:1,2007-06-04T11:00:00Z,28.3507,-96.0058,2.0,171.5221251,40.56321979,-99999.0,'11111222,11111222,99999999' 
TABS,ioos:station:wmo:42049:1,2007-06-04T11:30:00Z,28.3507,-96.0058,2.0,175.9784478,27.94881035,-99999.0,'11111222,11111222,99999999' 
TABS,ioos:station:wmo:42049:1,2007-06-04T12:00:00Z,28.3507,-96.0058,2.0,186.9554847,20.14829025,-99999.0,'11111222,11111222,99999999' 
TABS,ioos:station:wmo:42049:1,2007-06-04T12:30:00Z,28.3507,-96.0058,2.0,180.1224125,18.6900428,-99999.0,'11111222,11111222,99999999' 
TABS,ioos:station:wmo:42049:1,2007-06-04T13:00:00Z,28.3507,-96.0058,2.0,195.5259064,15.01803249,-99999.0,'11111222,11111222,99999999' 
TABS,ioos:station:wmo:42049:1,2007-06-04T13:30:00Z,28.3507,-96.0058,2.0,186.2444683,19.21400791,-99999.0,'11111222,11111222,99999999' 
TABS,ioos:station:wmo:42049:1,2007-06-04T14:00:00Z,28.3507,-96.0058,2.0,178.0689013,21.07196479,-99999.0,'11111222,11111222,99999999' 
TABS,ioos:station:wmo:42049:1,2007-06-04T14:30:00Z,28.3507,-96.0058,2.0,168.9247463,30.14134204,-99999.0,'11111222,11111222,99999999' 
TABS,ioos:station:wmo:42049:1,2007-06-04T15:00:00Z,28.3507,-96.0058,2.0,170.2516414,35.25908961,-99999.0,'11111222,11111222,99999999' 
TABS,ioos:station:wmo:42049:1,2007-06-04T15:30:00Z,28.3507,-96.0058,2.0,180.6043865,36.01200494,-99999.0,'11111222,11111222,99999999' 
TABS,ioos:station:wmo:42049:1,2007-06-04T16:00:00Z,28.3507,-96.0058,2.0,178.5977285,40.05199121,-99999.0,'11111222,11111222,99999999' 
TABS,ioos:station:wmo:42049:1,2007-06-04T16:30:00Z,28.3507,-96.0058,2.0,175.6990105,41.73752868,-99999.0,'11111222,11111222,99999999' 
TABS,ioos:station:wmo:42049:1,2007-06-04T17:00:00Z,28.3507,-96.0058,2.0,180.0985963,46.39006898,-99999.0,'11111222,11111222,99999999' 
TABS,ioos:station:wmo:42049:1,2007-06-04T17:30:00Z,28.3507,-96.0058,2.0,181.0560972,46.10783556,-99999.0,'11111222,11111222,99999999' 
TABS,ioos:station:wmo:42049:1,2007-06-04T18:00:00Z,28.3507,-96.0058,2.0,188.7524944,46.46107295,-99999.0,'11111222,11111222,99999999' 
TABS,ioos:station:wmo:42049:1,2007-06-04T18:30:00Z,28.3507,-96.0058,2.0,189.6714441,45.89228367,-99999.0,'11111222,11111222,99999999' 
TABS,ioos:station:wmo:42049:1,2007-06-04T19:00:00Z,28.3507,-96.0058,2.0,196.155819,44.45567343,-99999.0,'11111222,11111222,99999999' 
TABS,ioos:station:wmo:42049:1,2007-06-04T19:30:00Z,28.3507,-96.0058,2.0,196.0786005,42.46101271,-99999.0,'11111222,11111222,99999999' 
TABS,ioos:station:wmo:42049:1,2007-06-04T20:00:00Z,28.3507,-96.0058,2.0,196.5258274,43.10046403,-99999.0,'11111222,11111222,99999999' 
TABS,ioos:station:wmo:42049:1,2007-06-04T20:30:00Z,28.3507,-96.0058,2.0,199.73391,43.65381656,-99999.0,'11111222,11111222,99999999' 
TABS,ioos:station:wmo:42049:1,2007-06-04T21:00:00Z,28.3507,-96.0058,2.0,208.555236,34.12062426,-99999.0,'11111222,11111222,99999999' 
TABS,ioos:station:wmo:42049:1,2007-06-04T21:30:00Z,28.3507,-96.0058,2.0,213.1871528,30.98397166,-99999.0,'11111222,11111222,99999999' 
TABS,ioos:station:wmo:42049:1,2007-06-04T22:00:00Z,28.3507,-96.0058,2.0,220.3512358,26.87360043,-99999.0,'11111222,11111222,99999999' 
TABS,ioos:station:wmo:42049:1,2007-06-04T22:30:00Z,28.3507,-96.0058,2.0,225.1123231,21.58094067,-99999.0,'11111222,11111222,99999999' 
TABS,ioos:station:wmo:42049:1,2007-06-04T23:00:00Z,28.3507,-96.0058,2.0,243.9976741,18.20247236,-99999.0,'11111222,11111222,99999999' 
TABS,ioos:station:wmo:42049:1,2007-06-04T23:30:00Z,28.3507,-96.0058,2.0,243.998076,14.09685426,-99999.0,'11111222,11111222,99999999' 
TABS,ioos:station:wmo:42049:1,2007-06-05T00:00:00Z,28.3507,-96.0058,2.0,242.9955515,11.67261753,-99999.0,'11111222,11111222,99999999' 
TABS,ioos:station:wmo:42049:1,2007-06-05T00:30:00Z,28.3507,-96.0058,2.0,249.5090159,8.198737708,-99999.0,'11133222,11111222,99999999' 
TABS,ioos:station:wmo:42049:1,2007-06-05T01:00:00Z,28.3507,-96.0058,2.0,198.7978515,6.485961764,-99999.0,'11133222,11111222,99999999' 
TABS,ioos:station:wmo:42049:1,2007-06-05T01:30:00Z,28.3507,-96.0058,2.0,211.9738741,1.945096399,-99999.0,'11133222,11111222,99999999' 
TABS,ioos:station:wmo:42049:1,2007-06-05T02:00:00Z,28.3507,-96.0058,2.0,84.50768829,2.089593262,-99999.0,'11133222,11111222,99999999' 
TABS,ioos:station:wmo:42049:1,2007-06-05T02:30:00Z,28.3507,-96.0058,2.0,79.91942559,5.484669543,-99999.0,'11133222,11111222,99999999' 
TABS,ioos:station:wmo:42049:1,2007-06-05T03:00:00Z,28.3507,-96.0058,2.0,69.86126429,7.232164268,-99999.0,'11133222,11111222,99999999' 
TABS,ioos:station:wmo:42049:1,2007-06-05T03:30:00Z,28.3507,-96.0058,2.0,74.34506511,8.671683804,-99999.0,'11133222,11111222,99999999' 
TABS,ioos:station:wmo:42049:1,2007-06-05T04:00:00Z,28.3507,-96.0058,2.0,89.20757964,7.23069153,-99999.0,'11133222,11111222,99999999' 
TABS,ioos:station:wmo:42049:1,2007-06-05T04:30:00Z,28.3507,-96.0058,2.0,86.54669182,10.45899135,-99999.0,'11111222,11111222,99999999' 
TABS,ioos:station:wmo:42049:1,2007-06-05T05:00:00Z,28.3507,-96.0058,2.0,76.84490595,14.98319726,-99999.0,'11111222,11111222,99999999' 
TABS,ioos:station:wmo:42049:1,2007-06-05T05:30:00Z,28.3507,-96.0058,2.0,82.36551326,19.94681428,-99999.0,'11111222,11111222,99999999' 
TABS,ioos:station:wmo:42049:1,2007-06-05T06:00:00Z,28.3507,-96.0058,2.0,86.92927082,19.22760776,-99999.0,'11111222,11111222,99999999' 
TABS,ioos:station:wmo:42049:1,2007-06-05T06:30:00Z,28.3507,-96.0058,2.0,80.03920853,20.40761868,-99999.0,'11111222,11111222,99999999' 
TABS,ioos:station:wmo:42049:1,2007-06-05T07:00:00Z,28.3507,-96.0058,2.0,76.26206926,21.89641295,-99999.0,'11111222,11111222,99999999' 
TABS,ioos:station:wmo:42049:1,2007-06-05T07:30:00Z,28.3507,-96.0058,2.0,78.99707768,26.35446452,-99999.0,'11111222,11111222,99999999' 
TABS,ioos:station:wmo:42049:1,2007-06-05T08:00:00Z,28.3507,-96.0058,2.0,78.55474457,31.54732952,-99999.0,'11111222,11111222,99999999' 
TABS,ioos:station:wmo:42049:1,2007-06-05T08:30:00Z,28.3507,-96.0058,2.0,75.43504859,33.64112364,-99999.0,'11111222,11111222,99999999' 
TABS,ioos:station:wmo:42049:1,2007-06-05T09:00:00Z,28.3507,-96.0058,2.0,71.91848209,35.37707308,-99999.0,'11111222,11111222,99999999' 
TABS,ioos:station:wmo:42049:1,2007-06-05T09:30:00Z,28.3507,-96.0058,2.0,72.98810071,40.36627429,-99999.0,'11111222,11111222,99999999' 
TABS,ioos:station:wmo:42049:1,2007-06-05T10:00:00Z,28.3507,-96.0058,2.0,76.71069238,45.02571376,-99999.0,'11111222,11111222,99999999' 
TABS,ioos:station:wmo:42049:1,2007-06-05T10:30:00Z,28.3507,-96.0058,2.0,83.34196706,52.35307918,-99999.0,'11111222,11111222,99999999' 
TABS,ioos:station:wmo:42049:1,2007-06-05T11:00:00Z,28.3507,-96.0058,2.0,87.19977977,59.36088022,-99999.0,'11111222,11111222,99999999' 
TABS,ioos:station:wmo:42049:1,2007-06-05T11:30:00Z,28.3507,-96.0058,2.0,85.53060779,59.67145549,-99999.0,'11111222,11111222,99999999' 
TABS,ioos:station:wmo:42049:1,2007-06-05T12:00:00Z,28.3507,-96.0058,2.0,89.61090143,58.90135822,-99999.0,'11111222,11111222,99999999' 
TABS,ioos:station:wmo:42049:1,2007-06-05T12:30:00Z,28.3507,-96.0058,2.0,92.99698488,59.10083333,-99999.0,'11111222,11111222,99999999' 
TABS,ioos:station:wmo:42049:1,2007-06-05T13:00:00Z,28.3507,-96.0058,2.0,99.22788235,57.05843408,-99999.0,'11111222,11111222,99999999' 
TABS,ioos:station:wmo:42049:1,2007-06-05T13:30:00Z,28.3507,-96.0058,2.0,95.88362467,55.01983733,-99999.0,'11111222,11111222,99999999' 